Home   Weather   Freiburg   Past weeks

Flag for Germany Past Weather in Freiburg, Baden-Württemberg, Germany — Yesterday and Last 2 Weeks

Now
60 °F

Overcast.


Feels Like: 59 °F
Forecast: 40 / 48 °F
Wind: 7 mph from Southwest

Location: Freiburg

Current Time: Feb 27, 2017 at 5:06:56 pm

Latest Report: Feb 27, 2017 at 3:00 pm


Visibility: 16 mi

Pressure: 29.64 "Hg

Humidity: 44%

Dew Point: 38 °F

Location of FreiburgLocation

Past Weather in Freiburg — Graph

°F

Freiburg Temperature Yesterday

Maximum temperature yesterday: 55 °F (at 3:00 pm)
Minimum temperature yesterday: 33 °F (at 12:00 am)
Average temperature yesterday: 45 °F

High & Low Weather Summary for the Past Weeks

 TemperatureHumidityPressure
High65 °F (Feb 23, 3:00 pm)100% (Feb 13, 8:00 am)30.61 "Hg (Feb 13, 8:00 am)
Low24 °F (Feb 14, 8:00 am)27% (Feb 23, 3:00 pm)29.62 "Hg (Feb 23, 5:00 pm)
Average43 °F79%30.22 "Hg
* Reported Feb 12 3:00 pm — Feb 27 3:00 pm, Freiburg, Weather by CustomWeather, © 2017

Note: Actual official high and low records may vary slightly from our data, if they occured in-between our weather recording intervals... More about our weather records

Advertising

Freiburg Weather History for the Previous 24 Hours

Scroll right to see more
 ConditionsComfort  
Time TempWeatherWind HumidityBarometerVisibility
3:00 pm
Mon, Feb 27
60 °FOvercast.7 mph44%29.64 "Hg16 mi
2:00 pm58 °FOvercast.7 mph45%29.68 "Hg17 mi
12:00 pm55 °FPartly sunny.8 mph58%29.78 "Hg19 mi
11:00 am55 °FPartly sunny.7 mph58%29.80 "Hg19 mi
9:00 am50 °FSunny.3 mph67%29.85 "Hg43 mi
8:00 am40 °FPassing clouds.3 mph82%29.88 "Hg43 mi
6:00 am33 °FClear.1 mph87%29.93 "Hg5 mi
5:00 am32 °FClear.2 mph88%29.94 "Hg22 mi
3:00 am36 °FPassing clouds.No wind79%29.98 "Hg28 mi
2:00 am38 °FPassing clouds.2 mph72%29.99 "Hg37 mi
12:00 am43 °FPassing clouds.5 mph59%30.00 "Hg37 mi
11:00 pm
Sun, Feb 26
48 °FPassing clouds.5 mph50%30.01 "Hg37 mi
9:00 pm49 °FPassing clouds.5 mph47%30.02 "Hg43 mi
8:00 pm50 °FPassing clouds.3 mph45%30.02 "Hg43 mi
6:00 pm55 °FOvercast.8 mph39%29.99 "Hg43 mi
5:00 pm55 °FOvercast.7 mph39%30.00 "Hg25 mi
Weather by CustomWeather, © 2017

See weather overviewHow to use our weather pages